| time (UTC) | temp F | wind direction | speed MPH | gust MPH | rain 1hr in | rain 24hr in | rain mn in | humidity % | barometer mb |
| 20260507182003 | 62 | 292 | 6.0 | 11.0 | 0.00 | 0.00 | 0.00 | ||
| 20260507181003 | 62 | 341 | 2.0 | 13.0 | 0.00 | 0.00 | 0.00 | ||
| 20260507180003 | 61 | 317 | 7.0 | 15.0 | 0.00 | 0.00 | 0.00 | ||
| 20260507175025 | 61 | 259 | 4.0 | 13.0 | 0.00 | 0.00 | 0.00 | ||
| 20260507174002 | 61 | 325 | 5.0 | 12.0 | 0.00 | 0.00 | 0.00 | ||
| 20260507173003 | 60 | 271 | 4.0 | 15.0 | 0.00 | 0.00 | 0.00 | ||
| 20260507172003 | 60 | 310 | 7.0 | 14.0 | 0.00 | 0.00 | 0.00 | ||
| 20260507171002 | 60 | 299 | 4.0 | 11.0 | 0.00 | 0.00 | 0.00 | ||
| 20260507170002 | 60 | 314 | 4.0 | 10.0 | 0.00 | 0.00 | 0.00 | ||
| 20260507165003 | 60 | 303 | 3.0 | 11.0 | 0.00 | 0.00 | 0.00 | ||
| 20260507164003 | 60 | 331 | 5.0 | 14.0 | 0.00 | 0.00 | 0.00 | ||
| 20260507163003 | 59 | 259 | 5.0 | 11.0 | 0.00 | 0.00 | 0.00 | ||
| 20260507162004 | 59 | 258 | 7.0 | 11.0 | 0.00 | 0.00 | 0.00 | ||
| 20260507161003 | 59 | 252 | 0.0 | 11.0 | 0.00 | 0.00 | 0.00 | ||
| 20260507160004 | 58 | 329 | 5.0 | 13.0 | 0.00 | 0.00 | 0.00 | ||
| 20260507155025 | 59 | 334 | 4.0 | 9.0 | 0.00 | 0.00 | 0.00 | ||
| 20260507154025 | 60 | 309 | 3.0 | 13.0 | 0.00 | 0.00 | 0.00 | ||
| 20260507153002 | 64 | 302 | 2.0 | 11.0 | 0.00 | 0.00 | 0.00 | ||
| 20260507152003 | 64 | 335 | 1.0 | 6.0 | 0.00 | 0.00 | 0.00 | ||
| 20260507151002 | 63 | 289 | 6.0 | 10.0 | 0.00 | 0.00 | 0.00 | ||
| 20260507150003 | 64 | 313 | 5.0 | 10.0 | 0.00 | 0.00 | 0.00 | ||
| 20260507145003 | 64 | 27 | 1.0 | 8.0 | 0.00 | 0.00 | 0.00 | ||
| 20260507144002 | 63 | 336 | 1.0 | 10.0 | 0.00 | 0.00 | 0.00 | ||
| 20260507143003 | 63 | 340 | 1.0 | 7.0 | 0.00 | 0.00 | 0.00 | ||
| 20260507142004 | 62 | 286 | 0.0 | 11.0 | 0.00 | 0.00 | 0.00 | ||
| 20260507141002 | 61 | 20 | 0.0 | 8.0 | 0.00 | 0.00 | 0.00 | ||
| 20260507140003 | 60 | 298 | 1.0 | 11.0 | 0.00 | 0.00 | 0.00 | ||
| 20260507135023 | 60 | 336 | 3.0 | 9.0 | 0.00 | 0.00 | 0.00 | ||
| 20260507134004 | 59 | 335 | 1.0 | 9.0 | 0.00 | 0.00 | 0.00 | ||
| 20260507133003 | 58 | 302 | 0.0 | 9.0 | 0.00 | 0.00 | 0.00 | ||
| 20260507132002 | 57 | 345 | 3.0 | 8.0 | 0.00 | 0.00 | 0.00 | ||
| 20260507131003 | 56 | 329 | 1.0 | 5.0 | 0.00 | 0.00 | 0.00 | ||
| 20260507130004 | 50 | 355 | 3.0 | 8.0 | 0.00 | 0.00 | 0.00 | ||
| 20260507125002 | 48 | 337 | 1.0 | 9.0 | 0.00 | 0.00 | 0.00 | ||
| 20260507124003 | 47 | 347 | 4.0 | 8.0 | 0.00 | 0.00 | 0.00 | ||
| 20260507123023 | 47 | 348 | 2.0 | 9.0 | 0.00 | 0.00 | 0.00 | ||
| 20260507122002 | 46 | 349 | 5.0 | 10.0 | 0.00 | 0.00 | 0.00 | ||
| 20260507121003 | 45 | 343 | 3.0 | 8.0 | 0.00 | 0.00 | 0.00 | ||
| 20260507120002 | 44 | 330 | 4.0 | 8.0 | 0.00 | 0.00 | 0.00 | ||
| 20260507115002 | 43 | 319 | 3.0 | 6.0 | 0.00 | 0.00 | 0.00 | ||
| 20260507114023 | 43 | 326 | 3.0 | 8.0 | 0.00 | 0.00 | 0.00 | ||
| 20260507113002 | 42 | 324 | 0.0 | 0.0 | 0.00 | 0.00 | 0.00 | ||
| 20260507112002 | 41 | 324 | 0.0 | 0.0 | 0.00 | 0.00 | 0.00 | ||
| 20260507111002 | 41 | 324 | 0.0 | 0.0 | 0.00 | 0.00 | 0.00 | ||
| 20260507110002 | 40 | 324 | 0.0 | 3.0 | 0.00 | 0.00 | 0.00 | ||
| 20260507105003 | 40 | 316 | 0.0 | 5.0 | 0.00 | 0.00 | 0.00 | ||
| 20260507104003 | 40 | 281 | 0.0 | 3.0 | 0.00 | 0.00 | 0.00 | ||
| 20260507103003 | 40 | 2 | 0.0 | 0.0 | 0.00 | 0.00 | 0.00 | ||
| 20260507102003 | 40 | 2 | 0.0 | 0.0 | 0.00 | 0.00 | 0.00 | ||
| 20260507101002 | 40 | 2 | 0.0 | 0.0 | 0.00 | 0.00 | 0.00 | ||
| 20260507100024 | 40 | 2 | 0.0 | 0.0 | 0.00 | 0.00 | 0.00 | ||
| 20260507095002 | 40 | 2 | 0.0 | 0.0 | 0.00 | 0.00 | 0.00 | ||
| 20260507094002 | 40 | 2 | 0.0 | 0.0 | 0.00 | 0.00 | 0.00 | ||
| 20260507093025 | 41 | 2 | 0.0 | 0.0 | 0.00 | 0.00 | 0.00 | ||
| 20260507092003 | 41 | 2 | 0.0 | 0.0 | 0.00 | 0.00 | 0.00 | ||
| 20260507091003 | 41 | 2 | 0.0 | 0.0 | 0.00 | 0.00 | 0.00 | ||
| 20260507090045 | 41 | 2 | 0.0 | 0.0 | 0.00 | 0.00 | 0.00 | ||
| 20260507085002 | 41 | 2 | 0.0 | 0.0 | 0.00 | 0.00 | 0.00 | ||
| 20260507084003 | 42 | 2 | 0.0 | 0.0 | 0.00 | 0.00 | 0.00 | ||
| 20260507083004 | 42 | 2 | 0.0 | 0.0 | 0.00 | 0.00 | 0.00 | ||
| 20260507082002 | 42 | 2 | 0.0 | 0.0 | 0.00 | 0.00 | 0.00 | ||
| 20260507081002 | 42 | 2 | 0.0 | 0.0 | 0.00 | 0.00 | 0.00 | ||
| 20260507080003 | 43 | 2 | 0.0 | 0.0 | 0.00 | 0.00 | 0.00 | ||
| 20260507075003 | 43 | 2 | 0.0 | 0.0 | 0.00 | 0.00 | 0.00 | ||
| 20260507074002 | 43 | 2 | 0.0 | 0.0 | 0.00 | 0.00 | 0.00 | ||
| 20260507073003 | 44 | 2 | 0.0 | 0.0 | 0.00 | 0.00 | 0.00 | ||
| 20260507072004 | 44 | 2 | 0.0 | 0.0 | 0.00 | 0.00 | 0.00 | ||
| 20260507071024 | 44 | 2 | 0.0 | 0.0 | 0.00 | 0.00 | 0.00 | ||
| 20260507070025 | 44 | 2 | 0.0 | 0.0 | 0.00 | 0.00 | 0.00 | ||
| 20260507065004 | 44 | 2 | 0.0 | 0.0 | 0.00 | 0.00 | 0.00 | ||
| 20260507064002 | 45 | 2 | 0.0 | 0.0 | 0.00 | 0.00 | 0.00 | ||
| 20260507063003 | 45 | 2 | 0.0 | 0.0 | 0.00 | 0.00 | 0.00 | ||
| 20260507062002 | 45 | 2 | 0.0 | 0.0 | 0.00 | 0.00 | 0.00 | ||
| 20260507061002 | 45 | 2 | 0.0 | 0.0 | 0.00 | 0.00 | 0.00 | ||
| 20260507060002 | 44 | 2 | 0.0 | 0.0 | 0.00 | 0.00 | 0.00 | ||
| 20260507055002 | 45 | 2 | 0.0 | 0.0 | 0.00 | 0.00 | 0.00 | ||
| 20260507054002 | 45 | 2 | 0.0 | 0.0 | 0.00 | 0.00 | 0.00 | ||
| 20260507053004 | 46 | 2 | 0.0 | 0.0 | 0.00 | 0.00 | 0.00 | ||
| 20260507052002 | 46 | 2 | 0.0 | 0.0 | 0.00 | 0.00 | 0.00 | ||
| 20260507051023 | 47 | 2 | 0.0 | 0.0 | 0.00 | 0.00 | 0.00 | ||
| 20260507050002 | 47 | 2 | 0.0 | 0.0 | 0.00 | 0.00 | 0.00 | ||
| 20260507045003 | 46 | 2 | 0.0 | 0.0 | 0.00 | 0.00 | 0.00 | ||
| 20260507044023 | 46 | 2 | 0.0 | 0.0 | 0.00 | 0.00 | 0.00 | ||
| 20260507043023 | 46 | 2 | 0.0 | 0.0 | 0.00 | 0.00 | 0.00 | ||
| 20260507042004 | 46 | 2 | 0.0 | 0.0 | 0.00 | 0.00 | 0.00 | ||
| 20260507041003 | 47 | 2 | 0.0 | 0.0 | 0.00 | 0.00 | 0.00 | ||
| 20260507040002 | 47 | 2 | 0.0 | 0.0 | 0.00 | 0.00 | 0.00 | ||
| 20260507035023 | 47 | 2 | 0.0 | 0.0 | 0.00 | 0.00 | 0.00 | ||
| 20260507034046 | 47 | 2 | 0.0 | 0.0 | 0.00 | 0.00 | 0.00 | ||
| 20260507033002 | 48 | 2 | 0.0 | 0.0 | 0.00 | 0.00 | 0.00 | ||
| 20260507032003 | 48 | 2 | 0.0 | 0.0 | 0.00 | 0.00 | 0.00 | ||
| 20260507031002 | 49 | 2 | 0.0 | 0.0 | 0.00 | 0.00 | 0.00 | ||
| 20260507030004 | 49 | 2 | 0.0 | 0.0 | 0.00 | 0.00 | 0.00 | ||
| 20260507025003 | 50 | 2 | 0.0 | 0.0 | 0.00 | 0.00 | 0.00 | ||
| 20260507024003 | 51 | 2 | 0.0 | 0.0 | 0.00 | 0.00 | 0.00 | ||
| 20260507023002 | 52 | 2 | 0.0 | 0.0 | 0.00 | 0.00 | 0.00 | ||
| 20260507022024 | 53 | 2 | 0.0 | 5.0 | 0.00 | 0.00 | 0.00 | ||
| 20260507021002 | 54 | 297 | 1.0 | 7.0 | 0.00 | 0.00 | 0.00 | ||
| 20260507020003 | 54 | 300 | 0.0 | 6.0 | 0.00 | 0.00 | 0.00 | ||
| 20260507015003 | 54 | 319 | 2.0 | 5.0 | 0.00 | 0.00 | 0.00 | ||
| 20260507014003 | 55 | 292 | 1.0 | 6.0 | 0.00 | 0.00 | 0.00 | ||
| 20260507013002 | 56 | 326 | 1.0 | 5.0 | 0.00 | 0.00 | 0.00 | ||
| 20260507012003 | 56 | 351 | 2.0 | 7.0 | 0.00 | 0.00 | 0.00 | ||
| 20260507011024 | 56 | 338 | 0.0 | 5.0 | 0.00 | 0.00 | 0.00 | ||
| 20260507010003 | 56 | 335 | 0.0 | 6.0 | 0.00 | 0.00 | 0.00 | ||
| 20260507005004 | 56 | 327 | 2.0 | 6.0 | 0.00 | 0.00 | 0.00 | ||
| 20260507004003 | 56 | 323 | 1.0 | 3.0 | 0.00 | 0.00 | 0.00 | ||
| 20260507003003 | 56 | 287 | 0.0 | 0.0 | 0.00 | 0.00 | 0.00 | ||
| 20260507002025 | 57 | 287 | 0.0 | 0.0 | 0.00 | 0.00 | 0.00 | ||
| 20260507001002 | 57 | 287 | 0.0 | 0.0 | 0.00 | 0.00 | 0.00 | ||
| 20260507000024 | 57 | 287 | 0.0 | 0.0 | 0.00 | 0.00 | 0.00 | ||
| 20260506235003 | 57 | 287 | 0.0 | 0.0 | 0.00 | 0.00 | 0.00 | ||
| 20260506234002 | 57 | 287 | 0.0 | 0.0 | 0.00 | 0.00 | 0.00 | ||
| 20260506233025 | 58 | 287 | 0.0 | 0.0 | 0.00 | 0.00 | 0.00 | ||
| 20260506232002 | 58 | 287 | 0.0 | 5.0 | 0.00 | 0.00 | 0.00 | ||
| 20260506231003 | 58 | 314 | 0.0 | 0.0 | 0.00 | 0.00 | 0.00 | ||
| 20260506230002 | 59 | 313 | 0.0 | 6.0 | 0.00 | 0.00 | 0.00 | ||
| 20260506225002 | 59 | 328 | 1.0 | 6.0 | 0.00 | 0.00 | 0.00 | ||
| 20260506224002 | 59 | 309 | 3.0 | 8.0 | 0.00 | 0.00 | 0.00 | ||
| 20260506223004 | 60 | 328 | 2.0 | 12.0 | 0.00 | 0.00 | 0.00 | ||
| 20260506222024 | 60 | 339 | 4.0 | 10.0 | 0.00 | 0.00 | 0.00 | ||
| 20260506221003 | 60 | 322 | 3.0 | 9.0 | 0.00 | 0.00 | 0.00 | ||
| 20260506220002 | 60 | 41 | 0.0 | 7.0 | 0.00 | 0.00 | 0.00 | ||
| 20260506215003 | 60 | 308 | 1.0 | 9.0 | 0.00 | 0.00 | 0.00 | ||
| 20260506214003 | 62 | 282 | 3.0 | 10.0 | 0.00 | 0.00 | 0.00 | ||
| 20260506213003 | 63 | 308 | 3.0 | 8.0 | 0.00 | 0.00 | 0.00 | ||
| 20260506212002 | 63 | 324 | 3.0 | 9.0 | 0.00 | 0.00 | 0.00 | ||
| 20260506211003 | 63 | 319 | 4.0 | 7.0 | 0.00 | 0.00 | 0.00 | ||
| 20260506210003 | 63 | 339 | 3.0 | 7.0 | 0.00 | 0.00 | 0.00 | ||
| 20260506205002 | 63 | 322 | 3.0 | 8.0 | 0.00 | 0.00 | 0.00 | ||
| 20260506204004 | 64 | 302 | 0.0 | 9.0 | 0.00 | 0.00 | 0.00 | ||
| 20260506203004 | 64 | 252 | 0.0 | 5.0 | 0.00 | 0.00 | 0.00 | ||
| 20260506202003 | 64 | 311 | 3.0 | 6.0 | 0.00 | 0.00 | 0.00 | ||
| 20260506201002 | 64 | 354 | 0.0 | 7.0 | 0.00 | 0.00 | 0.00 | ||
| 20260506200004 | 64 | 268 | 1.0 | 7.0 | 0.00 | 0.00 | 0.00 | ||
| 20260506195003 | 64 | 222 | 0.0 | 5.0 | 0.00 | 0.00 | 0.00 | ||
| 20260506194003 | 65 | 235 | 1.0 | 6.0 | 0.00 | 0.00 | 0.00 | ||
| 20260506193003 | 66 | 325 | 1.0 | 8.0 | 0.00 | 0.00 | 0.00 | ||
| 20260506192002 | 66 | 304 | 2.0 | 8.0 | 0.00 | 0.00 | 0.00 | ||
| 20260506191003 | 65 | 321 | 3.0 | 10.0 | 0.00 | 0.00 | 0.00 | ||
| 20260506190003 | 67 | 252 | 0.0 | 7.0 | 0.00 | 0.00 | 0.00 | ||
| 20260506185002 | 67 | 290 | 4.0 | 9.0 | 0.00 | 0.00 | 0.00 | ||
| 20260506184024 | 66 | 319 | 1.0 | 8.0 | 0.00 | 0.00 | 0.00 | ||
| 20260506183002 | 66 | 298 | 0.0 | 9.0 | 0.00 | 0.00 | 0.00 |